Find Kosmos-1891

NORAD ID: 18402 Int'l Des: 1987-087 Owner: VMF Country: SU operational
LEOCIRCULARPOLAR

Live Position

Loading 3D Globe...

About Kosmos-1891

Description loading...

Upcoming Passes

Passes for default location (London). Set your location on the main map for personalized predictions.

Altitude History

Loading altitude history...

Two-Line Element Set

1 18402U 87087A 26106.71877352 .00000043 00000-0 30083-4 0 9995
2 18402 82.9191 260.4876 0049457 331.0393 28.8020 13.73927108930161
Epoch: Apr 16, 2026 • Age: 23 hours

Current Status

Altitude 976.5 km
Velocity 7.37 km/s
Sub-Earth Point 36.04°N, 176.94°E
Launch Date Oct 14, 1987
Age 38.5 years
Type other

Technical Details

Classification Payload
Mass 800.00 kg
Dry Mass 800.00 kg
Total Mass 800.00 kg
Length 5.00 m
Diameter 2.10 m
Span 17.00 m
Shape Cyl + Ant
Manufacturer OAZ
Bus Type KAUR-1 11F627
Phase Status In Orbit
Owner/State VMF/SU

Most Searched